| time (UTC) | temp F | wind direction | speed MPH | gust MPH | rain 1hr in | rain 24hr in | rain mn in | humidity % | barometer mb |
| 20260504141035 | 82 | 90 | 4.0 | 0.0 | 0.00 | 0.00 | 0.00 | 69 | 1012.0 |
| 20260504081018 | 82 | 126 | 5.0 | 11.0 | 0.00 | 0.00 | 0.00 | 69 | 1011.0 |
| 20260504050009 | 85 | 120 | 9.0 | 0.0 | 0.00 | 0.00 | 0.00 | 68 | 1013.0 |
| 20260504045008 | 85 | 120 | 9.0 | 0.0 | 0.00 | 0.00 | 0.00 | 67 | 1013.0 |
| 20260504044008 | 88 | 110 | 11.0 | 0.0 | 0.00 | 0.00 | 0.00 | 60 | 1013.0 |
| 20260504043007 | 88 | 110 | 11.0 | 0.0 | 0.00 | 0.00 | 0.00 | 60 | 1013.0 |
| 20260504042007 | 88 | 110 | 11.0 | 0.0 | 0.00 | 0.00 | 0.00 | 60 | 1013.0 |
| 20260504041006 | 88 | 110 | 11.0 | 0.0 | 0.00 | 0.00 | 0.00 | 57 | 1013.0 |
| 20260504040006 | 88 | 110 | 11.0 | 0.0 | 0.00 | 0.00 | 0.00 | 53 | 1013.0 |
| 20260504035005 | 88 | 110 | 11.0 | 0.0 | 0.00 | 0.00 | 0.00 | 53 | 1013.0 |
| 20260504034005 | 88 | 110 | 11.0 | 0.0 | 0.00 | 0.00 | 0.00 | 52 | 1012.0 |
| 20260504033004 | 88 | 110 | 11.0 | 0.0 | 0.00 | 0.00 | 0.00 | 49 | 1012.0 |
| 20260504032004 | 88 | 140 | 4.0 | 0.0 | 0.00 | 0.00 | 0.00 | 49 | 1012.0 |
| 20260504031003 | 88 | 140 | 4.0 | 0.0 | 0.00 | 0.00 | 0.00 | 49 | 1012.0 |
| 20260504030003 | 88 | 140 | 4.0 | 0.0 | 0.00 | 0.00 | 0.00 | 49 | 1012.0 |
| 20260504025002 | 88 | 140 | 4.0 | 0.0 | 0.00 | 0.00 | 0.00 | 49 | 1012.0 |
| 20260504024002 | 88 | 140 | 4.0 | 0.0 | 0.00 | 0.00 | 0.00 | 49 | 1012.0 |
| 20260504023001 | 88 | 140 | 4.0 | 0.0 | 0.00 | 0.00 | 0.00 | 49 | 1012.0 |
| 20260504022001 | 88 | 140 | 4.0 | 0.0 | 0.00 | 0.00 | 0.00 | 49 | 1011.0 |
| 20260504021000 | 88 | 140 | 4.0 | 0.0 | 0.00 | 0.00 | 0.00 | 49 | 1011.0 |
| 20260504020000 | 88 | 151 | 4.0 | 10.0 | 0.00 | 0.00 | 0.00 | 49 | 1011.0 |
| 20260504015000 | 87 | 151 | 4.0 | 10.0 | 0.00 | 0.00 | 0.00 | 49 | 1011.0 |
| 20260504013959 | 86 | 151 | 4.0 | 10.0 | 0.00 | 0.00 | 0.00 | 49 | 1010.0 |
| 20260504012959 | 91 | 120 | 11.0 | 0.0 | 0.00 | 0.00 | 0.00 | 49 | 1009.0 |
| 20260504011958 | 90 | 120 | 11.0 | 0.0 | 0.00 | 0.00 | 0.00 | 49 | 1009.0 |
| 20260504010958 | 89 | 120 | 11.0 | 0.0 | 0.00 | 0.00 | 0.00 | 49 | 1009.0 |
| 20260504005957 | 89 | 120 | 11.0 | 0.0 | 0.00 | 0.00 | 0.00 | 49 | 1009.0 |
| 20260504004956 | 93 | 120 | 11.0 | 0.0 | 0.00 | 0.00 | 0.00 | 44 | 1009.0 |
| 20260504003956 | 93 | 120 | 11.0 | 0.0 | 0.00 | 0.00 | 0.00 | 44 | 1009.0 |
| 20260504002956 | 93 | 120 | 11.0 | 0.0 | 0.00 | 0.00 | 0.00 | 42 | 1008.0 |
| 20260504001955 | 93 | 120 | 11.0 | 0.0 | 0.00 | 0.00 | 0.00 | 42 | 1008.0 |
| 20260504000955 | 93 | 120 | 11.0 | 0.0 | 0.00 | 0.00 | 0.00 | 42 | 1008.0 |
| 20260503235954 | 93 | 120 | 11.0 | 0.0 | 0.00 | 0.00 | 0.00 | 42 | 1008.0 |
| 20260503234954 | 93 | 120 | 11.0 | 0.0 | 0.00 | 0.00 | 0.00 | 42 | 1008.0 |
| 20260503233953 | 94 | 120 | 13.0 | 0.0 | 0.00 | 0.00 | 0.00 | 41 | 1007.0 |
| 20260503232953 | 94 | 120 | 13.0 | 0.0 | 0.00 | 0.00 | 0.00 | 41 | 1007.0 |
| 20260503231952 | 94 | 120 | 13.0 | 0.0 | 0.00 | 0.00 | 0.00 | 41 | 1007.0 |
| 20260503230952 | 94 | 120 | 13.0 | 0.0 | 0.00 | 0.00 | 0.00 | 41 | 1007.0 |
| 20260503225951 | 94 | 120 | 13.0 | 0.0 | 0.00 | 0.00 | 0.00 | 41 | 1007.0 |
| 20260503224950 | 94 | 120 | 13.0 | 0.0 | 0.00 | 0.00 | 0.00 | 41 | 1007.0 |
| 20260503223950 | 97 | 120 | 13.0 | 0.0 | 0.00 | 0.00 | 0.00 | 41 | 1007.0 |
| 20260503222950 | 97 | 120 | 13.0 | 0.0 | 0.00 | 0.00 | 0.00 | 41 | 1007.0 |
| 20260503221949 | 97 | 120 | 13.0 | 0.0 | 0.00 | 0.00 | 0.00 | 41 | 1007.0 |
| 20260503220949 | 97 | 100 | 13.0 | 0.0 | 0.00 | 0.00 | 0.00 | 41 | 1007.0 |
| 20260503215948 | 97 | 100 | 13.0 | 0.0 | 0.00 | 0.00 | 0.00 | 41 | 1007.0 |
| 20260503214948 | 97 | 100 | 13.0 | 0.0 | 0.00 | 0.00 | 0.00 | 41 | 1007.0 |
| 20260503213947 | 97 | 100 | 13.0 | 0.0 | 0.00 | 0.00 | 0.00 | 41 | 1007.0 |
| 20260503212947 | 97 | 100 | 13.0 | 0.0 | 0.00 | 0.00 | 0.00 | 41 | 1008.0 |
| 20260503211946 | 97 | 100 | 13.0 | 0.0 | 0.00 | 0.00 | 0.00 | 41 | 1008.0 |
| 20260503210945 | 97 | 100 | 13.0 | 0.0 | 0.00 | 0.00 | 0.00 | 41 | 1008.0 |
| 20260503205945 | 97 | 100 | 13.0 | 0.0 | 0.00 | 0.00 | 0.00 | 41 | 1007.0 |
| 20260503204945 | 97 | 100 | 13.0 | 0.0 | 0.00 | 0.00 | 0.00 | 42 | 1007.0 |
| 20260503203944 | 97 | 100 | 13.0 | 0.0 | 0.00 | 0.00 | 0.00 | 44 | 1008.0 |
| 20260503202943 | 97 | 100 | 13.0 | 0.0 | 0.00 | 0.00 | 0.00 | 47 | 1008.0 |
| 20260503201943 | 97 | 100 | 13.0 | 0.0 | 0.00 | 0.00 | 0.00 | 52 | 1008.0 |
| 20260503200942 | 97 | 90 | 11.0 | 0.0 | 0.00 | 0.00 | 0.00 | 52 | 1008.0 |
| 20260503195942 | 97 | 90 | 11.0 | 0.0 | 0.00 | 0.00 | 0.00 | 52 | 1008.0 |
| 20260503194941 | 97 | 90 | 11.0 | 0.0 | 0.00 | 0.00 | 0.00 | 52 | 1008.0 |
| 20260503193941 | 96 | 90 | 11.0 | 0.0 | 0.00 | 0.00 | 0.00 | 52 | 1009.0 |
| 20260503192940 | 96 | 90 | 11.0 | 0.0 | 0.00 | 0.00 | 0.00 | 52 | 1010.0 |
| 20260503191940 | 95 | 90 | 11.0 | 0.0 | 0.00 | 0.00 | 0.00 | 52 | 1010.0 |
| 20260503190939 | 95 | 90 | 11.0 | 0.0 | 0.00 | 0.00 | 0.00 | 52 | 1010.0 |
| 20260503184929 | 94 | 90 | 11.0 | 0.0 | 0.00 | 0.00 | 0.00 | 52 | 1009.0 |
| 20260503183928 | 94 | 90 | 11.0 | 0.0 | 0.00 | 0.00 | 0.00 | 55 | 1010.0 |
| 20260503182928 | 93 | 90 | 11.0 | 0.0 | 0.00 | 0.00 | 0.00 | 55 | 1011.0 |
| 20260503181928 | 92 | 90 | 11.0 | 0.0 | 0.00 | 0.00 | 0.00 | 55 | 1011.0 |
| 20260503180927 | 92 | 90 | 11.0 | 0.0 | 0.00 | 0.00 | 0.00 | 55 | 1011.0 |
| 20260503175927 | 92 | 90 | 11.0 | 0.0 | 0.00 | 0.00 | 0.00 | 55 | 1011.0 |
| 20260503174926 | 91 | 90 | 11.0 | 0.0 | 0.00 | 0.00 | 0.00 | 55 | 1011.0 |
| 20260503173926 | 91 | 90 | 11.0 | 0.0 | 0.00 | 0.00 | 0.00 | 56 | 1012.0 |
| 20260503172925 | 91 | 90 | 11.0 | 0.0 | 0.00 | 0.00 | 0.00 | 56 | 1012.0 |
| 20260503171925 | 91 | 90 | 11.0 | 0.0 | 0.00 | 0.00 | 0.00 | 58 | 1012.0 |
| 20260503170924 | 90 | 90 | 11.0 | 0.0 | 0.00 | 0.00 | 0.00 | 58 | 1012.0 |
| 20260503150918 | 85 | 110 | 11.0 | 0.0 | 0.00 | 0.00 | 0.00 | 70 | 1013.0 |